Seattle, WA
on Friday, February 22, 2013

Friday
Previous Day Next Day
Daily Summary
 ActualAverageRecord
Temperature
Mean Temperature °F 44°F  
Max Temperature 46°F 51°F 64°F (1966)
Min Temperature 34°F 37°F 30°F (2005)
Degree Days
Heating Degree Days 25 21  
Month to date heating degree days 453 480  
Since 1 July heating degree days 3027 3129  
Cooling Degree Days 0 0  
Month to date cooling degree days 0 0  
Year to date cooling degree days 0 0  
Moisture
Dew Point 37°F   
Average Humidity 78    
Maximum Humidity 89    
Minimum Humidity 67    
Precipitation
Precipitation 0.37 in 0.12 in 0.71 in (2002)
Month to date precipitation 0.96 2.77  
Year to date precipitation 5.12 8.34  
Snow
Snow 0.00 in in 3.10 in (1957)
Month to date snowfall 0.0  
Since 1 July snowfall 0.6  
Snow Depth 0.00 in   
Wind
Wind Speed 18 mph   
Max Wind Speed 30 mph   
Max Gust Speed 40 mph   
Visibility 9 miles   
Events Rain   

Key: T is trace of precipitation, MM is missing value
Source: NWS Daily Summary
Time(PST)TemperatureDew PointHumidity Pressure Visibility Wind DirectionWind SpeedGust SpeedPrecipitationEvents Conditions
12:35 AM 42.8°F 37.4°F 81% 30.06 in 10.0 miles SSW 13.8 mph - N/A   Overcast
12:53 AM 43.0°F 37.9°F 82% 30.08 in 9.0 miles SSW 13.8 mph - N/A   Overcast
1:53 AM 43.0°F 37.9°F 82% 30.08 in 10.0 miles South 13.8 mph - 0.00 in Rain Light Rain
2:15 AM 42.8°F 37.4°F 81% 30.04 in 10.0 miles South 13.8 mph - 0.01 in   Overcast
2:31 AM 42.8°F 37.4°F 81% 30.04 in 10.0 miles South 12.7 mph - 0.01 in Rain Light Rain
2:53 AM 43.0°F 37.9°F 82% 30.06 in 10.0 miles SSW 15.0 mph 20.7 mph 0.01 in Rain Light Rain
3:31 AM 42.8°F 37.4°F 81% 30.03 in 10.0 miles SSW 13.8 mph - 0.00 in   Light Drizzle
3:53 AM 43.0°F 37.9°F 82% 30.03 in 10.0 miles South 11.5 mph - 0.00 in   Light Drizzle
4:08 AM 42.8°F 37.4°F 81% 29.99 in 10.0 miles South 16.1 mph - 0.00 in Rain Light Rain
4:53 AM 42.1°F 37.0°F 82% 29.99 in 10.0 miles South 17.3 mph - 0.00 in Rain Light Rain
5:00 AM 42.8°F 37.4°F 81% 29.97 in 10.0 miles South 13.8 mph - 0.00 in   Light Drizzle
5:53 AM 43.0°F 37.0°F 80% 29.96 in 10.0 miles South 17.3 mph 25.3 mph 0.00 in Rain Light Rain
6:53 AM 43.0°F 37.9°F 82% 29.91 in 10.0 miles South 15.0 mph - 0.00 in Rain Light Rain
7:53 AM 44.1°F 37.9°F 79% 29.90 in 7.0 miles South 12.7 mph - 0.01 in Rain Light Rain
8:53 AM 43.0°F 39.0°F 86% 29.88 in 4.0 miles SSW 25.3 mph 31.1 mph 0.07 in Rain Rain
9:08 AM 42.8°F 39.2°F 87% 29.84 in 4.0 miles South 20.7 mph 33.4 mph 0.04 in Rain Rain
9:42 AM 42.8°F 39.2°F 87% 29.84 in 5.0 miles SSW 16.1 mph 25.3 mph 0.09 in Rain Light Rain
9:53 AM 43.0°F 39.6°F 88% 29.86 in 5.0 miles SSW 15.0 mph - 0.10 in Rain Light Rain
10:53 AM 43.0°F 39.9°F 89% 29.83 in 5.0 miles SSW 25.3 mph 32.2 mph 0.08 in Rain Rain
11:53 AM 44.1°F 39.0°F 82% 29.79 in 9.0 miles South 24.2 mph 36.8 mph 0.05 in Rain Light Rain
12:41 PM 44.6°F 39.2°F 81% 29.76 in 10.0 miles South 16.1 mph 26.5 mph 0.00 in Rain Light Rain
12:53 PM 44.1°F 39.0°F 82% 29.78 in 10.0 miles South 21.9 mph 29.9 mph 0.00 in Rain Light Rain
1:53 PM 44.1°F 39.0°F 82% 29.75 in 10.0 miles South 20.7 mph 33.4 mph 0.01 in   Overcast
2:53 PM 44.1°F 41.0°F 89% 29.75 in 6.0 miles South 16.1 mph 31.1 mph 0.01 in   Overcast
3:17 PM 44.6°F 41.0°F 87% 29.73 in 10.0 miles South 17.3 mph 24.2 mph 0.01 in   Overcast
3:53 PM 45.0°F 42.1°F 90% 29.77 in 6.0 miles SSW 18.4 mph 25.3 mph 0.01 in Rain Rain
4:08 PM 46.4°F 41.0°F 81% 29.74 in 10.0 miles SW 18.4 mph 31.1 mph 0.01 in   Mostly Cloudy
4:25 PM 46.4°F 37.4°F 71% 29.74 in 10.0 miles SSW 18.4 mph 31.1 mph 0.02 in   Scattered Clouds
4:53 PM 45.0°F 36.0°F 71% 29.76 in 10.0 miles SW 20.7 mph 32.2 mph 0.02 in   Scattered Clouds
5:53 PM 43.0°F 36.0°F 76% 29.77 in 10.0 miles SW 27.6 mph 34.5 mph N/A   Scattered Clouds
6:53 PM 42.1°F 32.0°F 67% 29.80 in 10.0 miles SW 15.0 mph 26.5 mph N/A   Scattered Clouds
7:44 PM 41.0°F 33.8°F 76% 29.80 in 10.0 miles SSW 18.4 mph 28.8 mph N/A   Mostly Cloudy
7:53 PM 41.0°F 33.1°F 73% 29.83 in 10.0 miles SSW 12.7 mph 25.3 mph N/A   Overcast
8:53 PM 39.9°F 33.1°F 77% 29.85 in 10.0 miles SSW 19.6 mph 29.9 mph N/A   Mostly Cloudy
9:17 PM 39.2°F 33.8°F 81% 29.83 in 10.0 miles SSW 19.6 mph 23.0 mph N/A   Scattered Clouds
9:53 PM 39.9°F 33.1°F 77% 29.87 in 10.0 miles SW 23.0 mph 31.1 mph N/A   Mostly Cloudy
10:53 PM 41.0°F 34.0°F 76% 29.90 in 10.0 miles SSW 17.3 mph 26.5 mph N/A   Mostly Cloudy
11:19 PM 41.0°F 35.6°F 81% 29.89 in 10.0 miles SW 17.3 mph 26.5 mph N/A   Overcast
11:53 PM 39.9°F 35.1°F 83% 29.92 in 10.0 miles SSW 16.1 mph 24.2 mph N/A   Overcast
Moon Phase
Feb. 22 Feb. 25 Mar. 04 Mar. 11 Mar. 19
Sunrise:07:01 AM (PST) Moon Rise:02:53 PM (PST)2/22
Sunset:05:44 PM (PST) Moon Set:04:59 AM (PST)2/22

Copyright © 2014 The Weather Underground, Inc.